START_TIME,STEP,MOV.,M6,t_acc.,M7,t_acc.,M19,t_acc.,H36,t_acc.
1979-03-10 09:14:28.820 ,0,0,0.,12.0,0.,12.0,0.,12.0,0.,12.0
1979-03-10 09:14:40.820 ,0,0,0.,12.0,0.,12.0,0.,12.0,0.,12.0
1979-03-10 09:14:48.620 ,5,1,0.,12.0,0.,12.0,0.,12.0,0.,12.0
1979-03-10 09:15:00.620 ,5,1,0.,12.0,0.,12.0,0.,12.0,0.,12.0
1979-03-10 09:15:12.620 ,6,1,0.,12.0,0.,12.0,0.,12.0,0.,12.0
1979-03-10 09:15:24.620 ,6,1,0.,12.0,0.,12.0,0.,12.0,0.,12.0
1979-03-10 09:15:36.620 ,7,1,0.,12.0,0.,12.0,0.,12.0,0.,12.0
1979-03-10 09:15:48.620 ,7,1,0.,12.0,0.,12.0,0.,12.0,0.,12.0
1979-03-10 09:16:00.620 ,6,1,0.,12.0,0.,12.0,0.,12.0,0.,12.0
1979-03-10 09:16:12.620 ,6,1,0.,12.0,0.,12.0,0.,12.0,0.,12.0
1979-03-10 09:16:24.620 ,0,0,0.,12.0,0.,12.0,0.,12.0,0.,12.0
1979-03-10 09:16:36.620 ,0,0,0.,12.0,0.,12.0,0.,12.0,0.,12.0
1979-03-10 09:16:48.620 ,0,0,0.,12.0,0.,12.0,0.,12.0,0.,12.0
1979-03-10 09:17:00.620 ,0,0,0.,12.0,0.,12.0,0.,12.0,0.,12.0
1979-03-10 09:17:12.620 ,5,1,0.,12.0,0.,12.0,0.,12.0,0.,12.0
1979-03-10 09:17:24.620 ,5,1,0.,12.0,0.,12.0,0.,12.0,0.,12.0
1979-03-10 09:17:36.620 ,4,1,0.,12.0,0.,12.0,0.,12.0,0.,12.0
1979-03-10 09:17:48.620 ,4,1,0.,12.0,0.,12.0,0.,12.0,0.,12.0
1979-03-10 09:18:00.620 ,3,1,0.,12.0,0.,12.0,0.,12.0,0.,12.0
1979-03-10 09:18:12.620 ,3,1,0.,12.0,0.,12.0,0.,12.0,0.,12.0
1979-03-10 09:18:24.620 ,2,1,0.,12.0,0.,12.0,0.,12.0,0.,12.0
1979-03-10 09:18:36.620 ,2,1,0.,12.0,0.,12.0,0.,12.0,0.,12.0
1979-03-10 09:18:48.620 ,1,1,0.,12.0,0.,12.0,0.,12.0,0.,12.0
1979-03-10 09:19:00.620 ,1,1,0.,12.0,0.,12.0,0.,12.0,0.,12.0
1979-03-10 09:19:12.620 ,0,1,0.,12.0,0.,12.0,0.,12.0,0.,12.0
1979-03-10 09:19:24.620 ,0,1,0.,12.0,0.,12.0,0.,12.0,0.,12.0
1979-03-10 09:19:36.620 ,0,1,0.,12.0,0.,12.0,0.,12.0,0.,12.0
1979-03-10 09:19:48.620 ,0,1,0.,12.0,0.,12.0,0.,12.0,0.,12.0
1979-03-10 09:20:00.620 ,1,1,0.,12.0,0.,12.0,0.,12.0,0.,12.0
1979-03-10 09:20:12.620 ,1,1,0.,12.0,0.,12.0,0.,12.0,0.,12.0
1979-03-10 09:20:24.620 ,2,1,0.,12.0,0.,12.0,0.,12.0,0.,12.0
1979-03-10 09:20:36.620 ,2,1,0.,12.0,0.,12.0,0.,12.0,0.,12.0
1979-03-10 09:20:48.620 ,3,1,0.,12.0,0.,12.0,0.,12.0,0.,12.0
1979-03-10 09:21:00.620 ,3,1,0.,12.0,0.,12.0,0.,12.0,0.,12.0
1979-03-10 09:21:12.620 ,4,1,0.,12.0,0.,12.0,0.,12.0,0.,12.0
1979-03-10 09:21:24.620 ,4,1,0.,12.0,0.,12.0,0.,12.0,0.,12.0
1979-03-10 09:21:36.620 ,5,1,0.,12.0,0.,12.0,0.,12.0,0.,12.0
1979-03-10 09:21:48.620 ,5,1,0.,12.0,0.,12.0,0.,12.0,0.,12.0
1979-03-10 09:22:00.620 ,0,0,0.,12.0,0.,12.0,0.,12.0,0.,12.0
1979-03-10 09:22:12.620 ,0,0,0.,12.0,0.,12.0,0.,12.0,0.,12.0
1979-03-10 09:23:07.220 ,0,0,,0,,0,,0,,0
1979-03-10 09:23:19.220 ,0,0,,0,,0,,0,,0
1979-03-10 09:23:12.620 ,6,1,0.,12.0,0.,12.0,0.,12.0,0.,12.0
1979-03-10 09:23:24.620 ,6,1,0.,12.0,0.,12.0,0.,12.0,0.,12.0
1979-03-10 09:23:36.620 ,5,1,0.,12.0,0.,12.0,0.,12.0,0.,12.0
1979-03-10 09:23:48.620 ,5,1,0.,12.0,0.,12.0,0.,12.0,0.,12.0
1979-03-10 09:24:00.620 ,4,1,0.,12.0,0.,12.0,0.,12.0,0.,12.0
1979-03-10 09:24:12.620 ,4,1,0.,12.0,0.,12.0,0.,12.0,0.,12.0
1979-03-10 09:24:24.620 ,3,1,0.,12.0,0.,12.0,0.,12.0,0.,12.0
1979-03-10 09:24:36.620 ,3,1,0.,12.0,0.,12.0,0.,12.0,0.,12.0
1979-03-10 09:24:48.620 ,2,1,0.,12.0,0.,12.0,0.,12.0,0.,12.0
1979-03-10 09:25:00.620 ,2,1,0.,12.0,0.,12.0,0.,12.0,0.,12.0
1979-03-10 09:25:12.620 ,1,1,0.,12.0,0.,12.0,0.,12.0,0.,12.0
1979-03-10 09:25:24.620 ,1,1,0.,12.0,0.,12.0,0.,12.0,0.,12.0
1979-03-10 09:25:36.620 ,0,1,0.,12.0,0.,12.0,0.,12.0,0.,12.0
1979-03-10 09:25:48.620 ,0,1,0.,12.0,0.,12.0,0.,12.0,0.,12.0
1979-03-10 09:26:00.620 ,0,1,0.,12.0,0.,12.0,0.,12.0,0.,12.0
1979-03-10 09:26:12.620 ,0,1,0.,12.0,0.,12.0,0.,12.0,0.,12.0
1979-03-10 09:26:24.620 ,1,1,0.,12.0,0.,12.0,0.,12.0,0.,12.0
1979-03-10 09:26:36.620 ,1,1,0.,12.0,0.,12.0,0.,12.0,0.,12.0
1979-03-10 09:26:48.620 ,2,1,0.,12.0,0.,12.0,0.,12.0,0.,12.0
1979-03-10 09:27:00.620 ,2,1,0.,12.0,0.,12.0,0.,12.0,0.,12.0
1979-03-10 09:27:12.620 ,3,1,0.,12.0,0.,12.0,0.,12.0,0.,12.0
1979-03-10 09:27:24.620 ,3,1,0.,12.0,0.,12.0,0.,12.0,0.,12.0
1979-03-10 09:27:36.620 ,4,1,0.,12.0,0.,12.0,0.,12.0,0.,12.0
1979-03-10 09:27:48.620 ,4,1,1.,12.0,0.,12.0,0.,12.0,0.,12.0
1979-03-10 09:28:00.620 ,5,1,0.,12.0,0.,12.0,0.,12.0,0.,12.0
1979-03-10 09:28:12.620 ,5,1,0.,12.0,0.,12.0,0.,12.0,0.,12.0
1979-03-10 09:28:24.620 ,6,1,0.,12.0,0.,12.0,0.,12.0,0.,12.0
1979-03-10 09:28:36.620 ,6,1,0.,12.0,0.,12.0,0.,12.0,0.,12.0
1979-03-10 09:28:48.620 ,7,1,0.,12.0,0.,12.0,0.,12.0,0.,12.0
1979-03-10 09:29:00.620 ,7,1,0.,12.0,0.,12.0,0.,12.0,0.,12.0
1979-03-10 09:29:12.620 ,7,1,0.,12.0,0.,12.0,0.,12.0,0.,12.0
1979-03-10 09:29:24.620 ,7,1,0.,12.0,0.,12.0,0.,12.0,0.,12.0
1979-03-10 09:29:36.620 ,6,1,0.,12.0,0.,12.0,0.,12.0,0.,12.0
1979-03-10 09:29:48.620 ,6,1,0.,12.0,0.,12.0,0.,12.0,0.,12.0
1979-03-10 09:30:00.620 ,5,1,0.,12.0,0.,12.0,0.,12.0,0.,12.0
1979-03-10 09:30:12.620 ,5,1,0.,12.0,0.,12.0,0.,12.0,0.,12.0
1979-03-10 09:30:24.620 ,4,1,0.,12.0,0.,12.0,0.,12.0,0.,12.0
1979-03-10 09:30:36.620 ,4,1,0.,12.0,0.,12.0,0.,12.0,0.,12.0
1979-03-10 09:30:48.620 ,3,1,0.,12.0,0.,12.0,0.,12.0,0.,12.0
1979-03-10 09:31:00.620 ,3,1,0.,12.0,0.,12.0,0.,12.0,0.,12.0
1979-03-10 09:31:12.620 ,2,1,0.,12.0,0.,12.0,0.,12.0,0.,12.0
1979-03-10 09:31:24.620 ,2,1,1.,12.0,0.,12.0,0.,12.0,0.,12.0
1979-03-10 09:31:36.620 ,1,1,0.,12.0,0.,12.0,0.,12.0,0.,12.0
1979-03-10 09:31:48.620 ,1,1,0.,12.0,0.,12.0,0.,12.0,0.,12.0
1979-03-10 09:32:00.620 ,0,1,0.,12.0,0.,12.0,0.,12.0,0.,12.0
1979-03-10 09:32:12.620 ,0,1,0.,12.0,0.,12.0,0.,12.0,0.,12.0
1979-03-10 09:32:24.620 ,0,1,0.,12.0,0.,12.0,0.,12.0,0.,12.0
1979-03-10 09:32:36.620 ,0,1,0.,12.0,0.,12.0,0.,12.0,0.,12.0
1979-03-10 09:32:48.620 ,1,1,0.,12.0,0.,12.0,0.,12.0,0.,12.0
1979-03-10 09:33:00.620 ,1,1,0.,12.0,0.,12.0,0.,12.0,0.,12.0
1979-03-10 09:33:12.620 ,2,1,0.,12.0,0.,12.0,0.,12.0,0.,12.0
1979-03-10 09:33:24.620 ,2,1,0.,12.0,0.,12.0,0.,12.0,0.,12.0
1979-03-10 09:33:36.620 ,3,1,0.,12.0,0.,12.0,0.,12.0,0.,12.0
1979-03-10 09:33:48.620 ,3,1,0.,12.0,0.,12.0,0.,12.0,0.,12.0
1979-03-10 09:34:00.620 ,4,1,0.,12.0,0.,12.0,0.,12.0,0.,12.0
1979-03-10 09:34:12.620 ,4,1,0.,12.0,0.,12.0,0.,12.0,0.,12.0
1979-03-10 09:34:24.620 ,5,1,0.,12.0,0.,12.0,0.,12.0,0.,12.0
1979-03-10 09:34:36.620 ,5,1,1.,12.0,0.,12.0,0.,12.0,0.,12.0
1979-03-10 09:34:48.620 ,6,1,0.,12.0,0.,12.0,0.,12.0,0.,12.0
1979-03-10 09:35:00.620 ,6,1,0.,12.0,0.,12.0,0.,12.0,0.,12.0
1979-03-10 09:35:12.620 ,7,1,0.,12.0,0.,12.0,0.,12.0,0.,12.0
1979-03-10 09:35:24.620 ,7,1,0.,12.0,0.,12.0,0.,12.0,0.,12.0
1979-03-10 09:35:36.620 ,7,1,0.,12.0,0.,12.0,0.,12.0,0.,12.0
1979-03-10 09:35:48.620 ,7,1,0.,12.0,0.,12.0,0.,12.0,0.,12.0
1979-03-10 09:36:00.620 ,6,1,0.,12.0,0.,12.0,0.,12.0,0.,12.0
1979-03-10 09:36:12.620 ,6,1,0.,12.0,0.,12.0,0.,12.0,0.,12.0
1979-03-10 09:36:24.620 ,5,1,0.,12.0,0.,12.0,0.,12.0,0.,12.0
1979-03-10 09:36:36.620 ,5,1,0.,12.0,0.,12.0,0.,12.0,0.,12.0
1979-03-10 09:36:48.620 ,4,1,2.,12.0,0.,12.0,0.,12.0,0.,12.0
1979-03-10 09:37:00.620 ,4,1,0.,12.0,0.,12.0,0.,12.0,0.,12.0
1979-03-10 09:37:12.620 ,3,1,0.,12.0,0.,12.0,0.,12.0,0.,12.0
1979-03-10 09:37:24.620 ,3,1,0.,12.0,0.,12.0,0.,12.0,0.,12.0
1979-03-10 09:37:36.620 ,2,1,0.,12.0,0.,12.0,0.,12.0,0.,12.0
1979-03-10 09:37:48.620 ,2,1,0.,12.0,0.,12.0,0.,12.0,0.,12.0
1979-03-10 09:38:00.620 ,1,1,0.,12.0,0.,12.0,0.,12.0,0.,12.0
1979-03-10 09:38:12.620 ,1,1,0.,12.0,0.,12.0,0.,12.0,0.,12.0
1979-03-10 09:38:24.620 ,0,1,0.,12.0,0.,12.0,0.,12.0,0.,12.0
1979-03-10 09:38:36.620 ,0,1,0.,12.0,0.,12.0,0.,12.0,0.,12.0
1979-03-10 09:38:48.620 ,0,1,0.,12.0,0.,12.0,0.,12.0,0.,12.0
1979-03-10 09:39:00.620 ,0,1,0.,12.0,0.,12.0,0.,12.0,0.,12.0
1979-03-10 09:39:12.620 ,1,1,0.,12.0,0.,12.0,0.,12.0,0.,12.0
1979-03-10 09:39:24.620 ,1,1,0.,12.0,0.,12.0,0.,12.0,0.,12.0
1979-03-10 09:39:36.620 ,2,1,0.,12.0,0.,12.0,0.,12.0,0.,12.0
1979-03-10 09:39:48.620 ,2,1,0.,12.0,0.,12.0,0.,12.0,0.,12.0
1979-03-10 09:40:00.620 ,3,1,1.,12.0,0.,12.0,0.,12.0,0.,12.0
1979-03-10 09:40:12.620 ,3,1,0.,12.0,0.,12.0,0.,12.0,0.,12.0
1979-03-10 09:40:24.620 ,4,1,0.,12.0,0.,12.0,0.,12.0,0.,12.0
1979-03-10 09:40:36.620 ,4,1,0.,12.0,0.,12.0,0.,12.0,0.,12.0
1979-03-10 09:40:48.620 ,5,1,0.,12.0,0.,12.0,0.,12.0,0.,12.0
1979-03-10 09:41:00.620 ,5,1,0.,12.0,0.,12.0,0.,12.0,0.,12.0
1979-03-10 09:41:12.620 ,6,1,0.,12.0,0.,12.0,0.,12.0,0.,12.0
1979-03-10 09:41:24.620 ,6,1,0.,12.0,0.,12.0,0.,12.0,0.,12.0
1979-03-10 09:41:36.620 ,7,1,0.,12.0,0.,12.0,0.,12.0,0.,12.0
1979-03-10 09:41:48.620 ,7,1,0.,12.0,0.,12.0,0.,12.0,0.,12.0
1979-03-10 09:42:00.620 ,7,1,0.,12.0,0.,12.0,0.,12.0,0.,12.0
1979-03-10 09:42:12.620 ,7,1,0.,12.0,0.,12.0,0.,12.0,0.,12.0
1979-03-10 09:42:24.620 ,6,1,0.,12.0,0.,12.0,0.,12.0,0.,12.0
1979-03-10 09:42:36.620 ,6,1,0.,12.0,0.,12.0,0.,12.0,0.,12.0
1979-03-10 09:42:48.620 ,5,1,0.,12.0,0.,12.0,0.,12.0,0.,12.0
1979-03-10 09:43:00.620 ,5,1,1.,12.0,0.,12.0,0.,12.0,0.,12.0
1979-03-10 09:43:12.620 ,4,1,0.,12.0,0.,12.0,0.,12.0,0.,12.0
1979-03-10 09:43:24.620 ,4,1,0.,12.0,0.,12.0,0.,12.0,0.,12.0
1979-03-10 09:43:36.620 ,3,1,0.,12.0,0.,12.0,0.,12.0,0.,12.0
1979-03-10 09:43:48.620 ,3,1,0.,12.0,0.,12.0,0.,12.0,0.,12.0
1979-03-10 09:44:00.620 ,2,1,0.,12.0,0.,12.0,0.,12.0,0.,12.0
1979-03-10 09:44:12.620 ,2,1,0.,12.0,0.,12.0,0.,12.0,0.,12.0
1979-03-10 09:44:24.620 ,1,1,0.,12.0,0.,12.0,0.,12.0,0.,12.0
1979-03-10 09:44:36.620 ,1,1,0.,12.0,0.,12.0,0.,12.0,0.,12.0
1979-03-10 09:44:48.620 ,0,1,0.,12.0,0.,12.0,0.,12.0,0.,12.0
1979-03-10 09:45:00.620 ,0,1,0.,12.0,0.,12.0,0.,12.0,0.,12.0
1979-03-10 09:45:12.620 ,0,1,0.,12.0,0.,12.0,0.,12.0,0.,12.0
1979-03-10 09:45:24.620 ,0,1,0.,12.0,0.,12.0,0.,12.0,0.,12.0
1979-03-10 09:45:36.620 ,1,1,0.,12.0,0.,12.0,0.,12.0,0.,12.0
1979-03-10 09:45:48.620 ,1,1,0.,12.0,0.,12.0,0.,12.0,0.,12.0
1979-03-10 09:46:00.620 ,2,1,0.,12.0,0.,12.0,0.,12.0,0.,12.0
1979-03-10 09:46:12.620 ,2,1,0.,12.0,0.,12.0,0.,12.0,0.,12.0
1979-03-10 09:46:24.620 ,3,1,0.,12.0,0.,12.0,0.,12.0,0.,12.0
1979-03-10 09:46:36.620 ,3,1,0.,12.0,0.,12.0,0.,12.0,0.,12.0
1979-03-10 09:46:48.620 ,4,1,0.,12.0,0.,12.0,0.,12.0,0.,12.0
1979-03-10 09:47:00.620 ,4,1,0.,12.0,0.,12.0,0.,12.0,0.,12.0
1979-03-10 09:47:12.620 ,5,1,0.,12.0,0.,12.0,0.,12.0,0.,12.0
1979-03-10 09:47:24.620 ,5,1,0.,12.0,0.,12.0,0.,12.0,0.,12.0
1979-03-10 09:47:36.620 ,6,1,0.,12.0,0.,12.0,0.,12.0,0.,12.0
1979-03-10 09:47:48.620 ,6,1,0.,12.0,0.,12.0,0.,12.0,0.,12.0
1979-03-10 09:48:00.620 ,7,1,0.,12.0,0.,12.0,0.,12.0,0.,12.0
1979-03-10 09:48:12.620 ,7,1,0.,12.0,0.,12.0,0.,12.0,0.,12.0
1979-03-10 09:48:24.620 ,7,1,0.,12.0,0.,12.0,0.,12.0,0.,12.0
1979-03-10 09:48:36.620 ,7,1,0.,12.0,0.,12.0,0.,12.0,0.,12.0
1979-03-10 09:48:48.620 ,6,1,0.,12.0,0.,12.0,0.,12.0,0.,12.0
1979-03-10 09:49:00.620 ,6,1,0.,12.0,0.,12.0,0.,12.0,0.,12.0
1979-03-10 09:49:12.620 ,5,1,0.,12.0,0.,12.0,0.,12.0,0.,12.0
1979-03-10 09:49:24.620 ,5,1,0.,12.0,0.,12.0,0.,12.0,0.,12.0
1979-03-10 09:49:36.620 ,4,1,1.,12.0,0.,12.0,0.,12.0,0.,12.0
1979-03-10 09:49:48.620 ,4,1,0.,12.0,0.,12.0,0.,12.0,0.,12.0
1979-03-10 09:50:00.620 ,3,1,0.,12.0,0.,12.0,0.,12.0,0.,12.0
1979-03-10 09:50:12.620 ,3,1,0.,12.0,0.,12.0,0.,12.0,0.,12.0
1979-03-10 09:50:24.620 ,2,1,0.,12.0,0.,12.0,0.,12.0,0.,12.0
1979-03-10 09:50:36.620 ,2,1,0.,12.0,0.,12.0,0.,12.0,0.,12.0
1979-03-10 09:50:48.620 ,1,1,0.,12.0,0.,12.0,0.,12.0,0.,12.0
1979-03-10 09:51:00.620 ,1,1,0.,12.0,0.,12.0,0.,12.0,0.,12.0
1979-03-10 09:51:12.620 ,0,1,0.,12.0,0.,12.0,0.,12.0,0.,12.0
1979-03-10 09:51:24.620 ,0,1,0.,12.0,0.,12.0,0.,12.0,0.,12.0
1979-03-10 09:51:36.620 ,0,1,0.,12.0,0.,12.0,0.,12.0,0.,12.0
1979-03-10 09:51:48.620 ,0,1,0.,12.0,0.,12.0,0.,12.0,0.,12.0
1979-03-10 09:52:00.620 ,1,1,0.,12.0,0.,12.0,0.,12.0,0.,12.0
1979-03-10 09:52:12.620 ,1,1,0.,12.0,0.,12.0,0.,12.0,0.,12.0
1979-03-10 09:52:24.620 ,2,1,0.,12.0,0.,12.0,0.,12.0,0.,12.0
1979-03-10 09:52:36.620 ,2,1,0.,12.0,0.,12.0,0.,12.0,0.,12.0
1979-03-10 09:52:48.620 ,3,1,0.,12.0,0.,12.0,0.,12.0,0.,12.0
1979-03-10 09:53:00.620 ,3,1,0.,12.0,0.,12.0,0.,12.0,0.,12.0
1979-03-10 09:53:12.620 ,4,1,0.,12.0,0.,12.0,0.,12.0,0.,12.0
1979-03-10 09:53:24.620 ,4,1,0.,12.0,0.,12.0,0.,12.0,0.,12.0
1979-03-10 09:53:36.620 ,5,1,0.,12.0,0.,12.0,0.,12.0,0.,12.0
1979-03-10 09:53:48.620 ,5,1,1.,12.0,0.,12.0,0.,12.0,0.,12.0
1979-03-10 09:54:00.620 ,6,1,0.,12.0,0.,12.0,0.,12.0,0.,12.0
1979-03-10 09:54:12.620 ,6,1,0.,12.0,0.,12.0,0.,12.0,0.,12.0
1979-03-10 09:54:24.620 ,7,1,0.,12.0,0.,12.0,0.,12.0,0.,12.0
1979-03-10 09:54:36.620 ,7,1,0.,12.0,0.,12.0,0.,12.0,0.,12.0
1979-03-10 09:54:48.620 ,7,1,0.,12.0,0.,12.0,0.,12.0,0.,12.0
1979-03-10 09:55:00.620 ,7,1,0.,12.0,0.,12.0,0.,12.0,0.,12.0
1979-03-10 09:55:12.620 ,6,1,0.,12.0,0.,12.0,0.,12.0,0.,12.0
1979-03-10 09:55:24.620 ,6,1,0.,12.0,0.,12.0,0.,12.0,0.,12.0
1979-03-10 09:55:36.620 ,5,1,0.,12.0,0.,12.0,0.,12.0,0.,12.0
1979-03-10 09:55:48.620 ,5,1,0.,12.0,0.,12.0,0.,12.0,0.,12.0
1979-03-10 09:56:00.620 ,4,1,0.,12.0,0.,12.0,0.,12.0,0.,12.0
1979-03-10 09:56:12.620 ,4,1,0.,12.0,0.,12.0,0.,12.0,0.,12.0
1979-03-10 09:56:24.620 ,3,1,0.,12.0,0.,12.0,0.,12.0,0.,12.0
1979-03-10 09:56:36.620 ,3,1,0.,12.0,0.,12.0,0.,12.0,0.,12.0
1979-03-10 09:56:48.620 ,2,1,0.,12.0,0.,12.0,0.,12.0,0.,12.0
1979-03-10 09:57:00.620 ,2,1,0.,12.0,0.,12.0,0.,12.0,0.,12.0
1979-03-10 09:57:12.620 ,1,1,0.,12.0,0.,12.0,0.,12.0,0.,12.0
1979-03-10 09:57:24.620 ,1,1,1.,12.0,0.,12.0,0.,12.0,0.,12.0
1979-03-10 09:57:36.620 ,0,1,1.,12.0,0.,12.0,0.,12.0,0.,12.0
1979-03-10 09:57:48.620 ,0,1,0.,12.0,0.,12.0,0.,12.0,0.,12.0
1979-03-10 09:58:00.620 ,0,1,0.,12.0,0.,12.0,0.,12.0,0.,12.0
1979-03-10 09:58:12.620 ,0,1,0.,12.0,0.,12.0,0.,12.0,0.,12.0
1979-03-10 09:58:24.620 ,1,1,0.,12.0,0.,12.0,0.,12.0,0.,12.0
1979-03-10 09:58:36.620 ,1,1,0.,12.0,0.,12.0,0.,12.0,0.,12.0
1979-03-10 09:58:48.620 ,2,1,0.,12.0,0.,12.0,0.,12.0,0.,12.0
1979-03-10 09:59:00.620 ,2,1,0.,12.0,0.,12.0,0.,12.0,0.,12.0
1979-03-10 09:59:12.620 ,3,1,0.,12.0,0.,12.0,0.,12.0,0.,12.0
1979-03-10 09:59:24.620 ,3,1,0.,12.0,0.,12.0,0.,12.0,0.,12.0
1979-03-10 09:59:36.620 ,4,1,0.,12.0,0.,12.0,0.,12.0,0.,12.0
1979-03-10 09:59:48.620 ,4,1,0.,12.0,0.,12.0,0.,12.0,0.,12.0
1979-03-10 10:00:00.620 ,5,1,0.,12.0,0.,12.0,0.,12.0,0.,12.0
1979-03-10 10:00:12.620 ,5,1,1.,12.0,0.,12.0,0.,12.0,0.,12.0
1979-03-10 10:00:24.620 ,6,1,0.,12.0,0.,12.0,0.,12.0,0.,12.0
1979-03-10 10:00:36.620 ,6,1,0.,12.0,0.,12.0,0.,12.0,0.,12.0
1979-03-10 10:00:48.620 ,7,1,0.,12.0,0.,12.0,0.,12.0,0.,12.0
1979-03-10 10:01:00.620 ,7,1,0.,12.0,0.,12.0,0.,12.0,0.,12.0
1979-03-10 10:01:12.620 ,7,1,0.,12.0,0.,12.0,0.,12.0,0.,12.0
1979-03-10 10:01:24.620 ,7,1,0.,12.0,0.,12.0,0.,12.0,0.,12.0
1979-03-10 10:01:36.620 ,6,1,0.,12.0,0.,12.0,0.,12.0,0.,12.0
1979-03-10 10:01:48.620 ,6,1,0.,12.0,0.,12.0,0.,12.0,0.,12.0
1979-03-10 10:02:00.620 ,5,1,0.,12.0,0.,12.0,0.,12.0,0.,12.0
1979-03-10 10:02:12.620 ,5,1,0.,12.0,0.,12.0,0.,12.0,0.,12.0
1979-03-10 10:02:24.620 ,4,1,0.,12.0,0.,12.0,0.,12.0,0.,12.0
1979-03-10 10:02:36.620 ,4,1,0.,12.0,0.,12.0,0.,12.0,0.,12.0
1979-03-10 10:02:48.620 ,3,1,0.,12.0,0.,12.0,0.,12.0,0.,12.0
1979-03-10 10:03:00.620 ,3,1,0.,12.0,0.,12.0,0.,12.0,0.,12.0
1979-03-10 10:03:12.620 ,2,1,0.,12.0,0.,12.0,0.,12.0,0.,12.0
1979-03-10 10:03:24.620 ,2,1,0.,12.0,0.,12.0,0.,12.0,0.,12.0
1979-03-10 10:03:36.620 ,1,1,0.,12.0,0.,12.0,0.,12.0,0.,12.0
1979-03-10 10:03:48.620 ,1,1,2.,12.0,0.,12.0,0.,12.0,0.,12.0
1979-03-10 10:04:00.620 ,0,1,0.,12.0,0.,12.0,0.,12.0,0.,12.0
1979-03-10 10:04:12.620 ,0,1,0.,12.0,0.,12.0,0.,12.0,0.,12.0
1979-03-10 10:04:24.620 ,0,1,0.,12.0,0.,12.0,0.,12.0,0.,12.0
1979-03-10 10:04:36.620 ,0,1,0.,12.0,0.,12.0,0.,12.0,0.,12.0
1979-03-10 10:04:48.620 ,1,1,0.,12.0,0.,12.0,0.,12.0,0.,12.0
1979-03-10 10:05:00.620 ,1,1,0.,12.0,0.,12.0,0.,12.0,0.,12.0
1979-03-10 10:05:12.620 ,2,1,0.,12.0,0.,12.0,0.,12.0,0.,12.0
1979-03-10 10:05:24.620 ,2,1,0.,12.0,0.,12.0,0.,12.0,0.,12.0
1979-03-10 10:05:36.620 ,3,1,0.,12.0,0.,12.0,0.,12.0,0.,12.0
1979-03-10 10:05:48.620 ,3,1,0.,12.0,0.,12.0,0.,12.0,0.,12.0
1979-03-10 10:06:00.620 ,4,1,0.,12.0,0.,12.0,0.,12.0,0.,12.0
1979-03-10 10:06:12.620 ,4,1,0.,12.0,0.,12.0,0.,12.0,0.,12.0
1979-03-10 10:06:24.620 ,5,1,0.,12.0,0.,12.0,0.,12.0,0.,12.0
1979-03-10 10:06:36.620 ,5,1,0.,12.0,0.,12.0,0.,12.0,0.,12.0
1979-03-10 10:06:48.620 ,6,1,0.,12.0,0.,12.0,0.,12.0,0.,12.0
1979-03-10 10:07:00.620 ,6,1,0.,12.0,0.,12.0,0.,12.0,0.,12.0
1979-03-10 10:07:12.620 ,7,1,0.,12.0,0.,12.0,0.,12.0,0.,12.0
1979-03-10 10:07:24.620 ,7,1,0.,12.0,0.,12.0,0.,12.0,0.,12.0
1979-03-10 10:07:36.620 ,7,1,0.,12.0,0.,12.0,0.,12.0,0.,12.0
1979-03-10 10:07:48.620 ,7,1,0.,12.0,0.,12.0,0.,12.0,0.,12.0
1979-03-10 10:08:00.620 ,6,1,0.,12.0,0.,12.0,0.,12.0,0.,12.0
1979-03-10 10:08:12.620 ,6,1,0.,12.0,0.,12.0,0.,12.0,0.,12.0
1979-03-10 10:08:24.620 ,5,1,0.,12.0,0.,12.0,0.,12.0,0.,12.0
1979-03-10 10:08:36.620 ,5,1,1.,12.0,0.,12.0,0.,12.0,0.,12.0
1979-03-10 10:08:48.620 ,4,1,0.,12.0,0.,12.0,0.,12.0,0.,12.0
1979-03-10 10:09:00.620 ,4,1,0.,12.0,0.,12.0,0.,12.0,0.,12.0
1979-03-10 10:09:12.620 ,3,1,0.,12.0,0.,12.0,0.,12.0,0.,12.0
1979-03-10 10:09:24.620 ,3,1,0.,12.0,0.,12.0,0.,12.0,0.,12.0
1979-03-10 10:09:36.620 ,2,1,0.,12.0,0.,12.0,0.,12.0,0.,12.0
1979-03-10 10:09:48.620 ,2,1,0.,12.0,0.,12.0,0.,12.0,0.,12.0
1979-03-10 10:10:00.620 ,1,1,1.,12.0,0.,12.0,0.,12.0,0.,12.0
1979-03-10 10:10:12.620 ,1,1,0.,12.0,0.,12.0,0.,12.0,0.,12.0
1979-03-10 10:10:24.620 ,0,1,0.,12.0,0.,12.0,0.,12.0,0.,12.0
1979-03-10 10:10:36.620 ,0,1,0.,12.0,0.,12.0,0.,12.0,0.,12.0
1979-03-10 10:10:48.620 ,0,1,0.,12.0,0.,12.0,0.,12.0,0.,12.0
1979-03-10 10:11:00.620 ,0,1,0.,12.0,0.,12.0,0.,12.0,0.,12.0
1979-03-10 10:11:12.620 ,1,1,0.,12.0,0.,12.0,0.,12.0,0.,12.0
1979-03-10 10:11:24.620 ,1,1,0.,12.0,0.,12.0,0.,12.0,0.,12.0
1979-03-10 10:11:36.620 ,2,1,0.,12.0,0.,12.0,0.,12.0,0.,12.0
1979-03-10 10:11:48.620 ,2,1,0.,12.0,0.,12.0,0.,12.0,0.,12.0
1979-03-10 10:12:00.620 ,3,1,0.,12.0,0.,12.0,0.,12.0,0.,12.0
1979-03-10 10:12:12.620 ,3,1,1.,12.0,0.,12.0,0.,12.0,0.,12.0
1979-03-10 10:12:24.620 ,4,1,0.,12.0,0.,12.0,0.,12.0,0.,12.0
1979-03-10 10:12:36.620 ,4,1,0.,12.0,0.,12.0,0.,12.0,0.,12.0
1979-03-10 10:12:48.620 ,5,1,0.,12.0,0.,12.0,0.,12.0,0.,12.0
1979-03-10 10:13:00.620 ,5,1,0.,12.0,0.,12.0,0.,12.0,0.,12.0
1979-03-10 10:13:12.620 ,6,1,1.,12.0,0.,12.0,0.,12.0,0.,12.0
1979-03-10 10:13:24.620 ,6,1,0.,12.0,0.,12.0,0.,12.0,0.,12.0
1979-03-10 10:13:36.620 ,7,1,0.,12.0,0.,12.0,0.,12.0,0.,12.0
1979-03-10 10:13:48.620 ,7,1,0.,12.0,0.,12.0,0.,12.0,0.,12.0
1979-03-10 10:14:00.620 ,7,1,0.,12.0,0.,12.0,0.,12.0,0.,12.0
1979-03-10 10:14:12.620 ,7,1,0.,12.0,0.,12.0,0.,12.0,0.,12.0
1979-03-10 10:14:24.620 ,6,1,0.,12.0,0.,12.0,0.,12.0,0.,12.0
1979-03-10 10:14:36.620 ,6,1,0.,12.0,0.,12.0,0.,12.0,0.,12.0
1979-03-10 10:14:48.620 ,5,1,0.,12.0,0.,12.0,0.,12.0,0.,12.0
1979-03-10 10:15:00.620 ,5,1,1.,12.0,0.,12.0,0.,12.0,0.,12.0
1979-03-10 10:15:12.620 ,4,1,1.,12.0,0.,12.0,0.,12.0,0.,12.0
1979-03-10 10:15:24.620 ,4,1,1.,12.0,0.,12.0,0.,12.0,0.,12.0
1979-03-10 10:15:36.620 ,3,1,0.,12.0,0.,12.0,0.,12.0,0.,12.0
1979-03-10 10:15:48.620 ,3,1,0.,12.0,0.,12.0,0.,12.0,0.,12.0
1979-03-10 10:16:00.620 ,2,1,0.,12.0,0.,12.0,0.,12.0,0.,12.0
1979-03-10 10:16:12.620 ,2,1,0.,12.0,0.,12.0,0.,12.0,0.,12.0
1979-03-10 10:16:24.620 ,1,1,0.,12.0,0.,12.0,0.,12.0,0.,12.0
1979-03-10 10:16:36.620 ,1,1,0.,12.0,0.,12.0,0.,12.0,0.,12.0
1979-03-10 10:16:48.620 ,0,1,0.,12.0,0.,12.0,0.,12.0,0.,12.0
1979-03-10 10:17:00.620 ,0,1,0.,12.0,0.,12.0,0.,12.0,0.,12.0
1979-03-10 10:17:12.620 ,0,1,0.,12.0,0.,12.0,0.,12.0,0.,12.0
1979-03-10 10:17:24.620 ,0,1,0.,12.0,0.,12.0,0.,12.0,0.,12.0
1979-03-10 10:17:36.620 ,1,1,0.,12.0,0.,12.0,0.,12.0,0.,12.0
1979-03-10 10:17:48.620 ,1,1,0.,12.0,0.,12.0,0.,12.0,0.,12.0
1979-03-10 10:18:00.620 ,2,1,0.,12.0,0.,12.0,0.,12.0,0.,12.0
1979-03-10 10:18:12.620 ,2,1,0.,12.0,0.,12.0,0.,12.0,0.,12.0
1979-03-10 10:18:24.620 ,3,1,0.,12.0,0.,12.0,0.,12.0,0.,12.0
1979-03-10 10:18:36.620 ,3,1,0.,12.0,0.,12.0,0.,12.0,0.,12.0
1979-03-10 10:18:48.620 ,4,1,0.,12.0,0.,12.0,0.,12.0,0.,12.0
1979-03-10 10:19:00.620 ,4,1,0.,12.0,0.,12.0,0.,12.0,0.,12.0
1979-03-10 10:19:12.620 ,5,1,0.,12.0,0.,12.0,0.,12.0,0.,12.0
1979-03-10 10:19:24.620 ,5,1,0.,12.0,0.,12.0,0.,12.0,0.,12.0
1979-03-10 10:19:36.620 ,6,1,0.,12.0,0.,12.0,0.,12.0,0.,12.0
1979-03-10 10:19:48.620 ,6,1,0.,12.0,0.,12.0,0.,12.0,0.,12.0
1979-03-10 10:20:00.620 ,7,1,0.,12.0,0.,12.0,0.,12.0,0.,12.0
1979-03-10 10:20:12.620 ,7,1,0.,12.0,0.,12.0,0.,12.0,0.,12.0
1979-03-10 10:20:24.620 ,7,1,0.,12.0,0.,12.0,0.,12.0,0.,12.0
1979-03-10 10:20:36.620 ,7,1,0.,12.0,0.,12.0,0.,12.0,0.,12.0
1979-03-10 10:20:48.620 ,6,1,0.,12.0,0.,12.0,0.,12.0,0.,12.0
1979-03-10 10:21:00.620 ,6,1,1.,12.0,0.,12.0,0.,12.0,0.,12.0
1979-03-10 10:21:12.620 ,5,1,0.,12.0,0.,12.0,0.,12.0,0.,12.0
1979-03-10 10:21:24.620 ,5,1,0.,12.0,0.,12.0,0.,12.0,0.,12.0
1979-03-10 10:21:36.620 ,4,1,0.,12.0,0.,12.0,0.,12.0,0.,12.0
1979-03-10 10:21:48.620 ,4,1,0.,12.0,0.,12.0,0.,12.0,0.,12.0
1979-03-10 10:22:00.620 ,3,1,0.,12.0,0.,12.0,0.,12.0,0.,12.0
1979-03-10 10:22:12.620 ,3,1,0.,12.0,0.,12.0,0.,12.0,0.,12.0
1979-03-10 10:22:24.620 ,2,1,0.,12.0,0.,12.0,0.,12.0,0.,12.0
1979-03-10 10:22:36.620 ,2,1,1.,12.0,0.,12.0,0.,12.0,0.,12.0
1979-03-10 10:22:48.620 ,1,1,0.,12.0,0.,12.0,0.,12.0,0.,12.0
1979-03-10 10:23:00.620 ,1,1,2.,12.0,0.,12.0,0.,12.0,0.,12.0
1979-03-10 10:23:12.620 ,0,1,1.,12.0,0.,12.0,0.,12.0,0.,12.0
1979-03-10 10:23:24.620 ,0,1,0.,12.0,0.,12.0,0.,12.0,0.,12.0
1979-03-10 10:23:36.620 ,0,1,0.,12.0,0.,12.0,0.,12.0,0.,12.0
1979-03-10 10:23:48.620 ,0,1,0.,12.0,0.,12.0,0.,12.0,0.,12.0
1979-03-10 10:24:00.620 ,1,1,0.,12.0,0.,12.0,0.,12.0,0.,12.0
1979-03-10 10:24:12.620 ,1,1,1.,12.0,0.,12.0,0.,12.0,0.,12.0
1979-03-10 10:24:24.620 ,2,1,0.,12.0,0.,12.0,0.,12.0,0.,12.0
1979-03-10 10:24:36.620 ,2,1,0.,12.0,0.,12.0,0.,12.0,0.,12.0
1979-03-10 10:24:48.620 ,3,1,0.,12.0,0.,12.0,0.,12.0,0.,12.0
1979-03-10 10:25:00.620 ,3,1,0.,12.0,0.,12.0,0.,12.0,0.,12.0
1979-03-10 10:25:12.620 ,4,1,0.,12.0,0.,12.0,0.,12.0,0.,12.0
1979-03-10 10:25:24.620 ,4,1,0.,12.0,0.,12.0,0.,12.0,0.,12.0
1979-03-10 10:25:36.620 ,5,1,0.,12.0,0.,12.0,0.,12.0,0.,12.0
1979-03-10 10:25:48.620 ,5,1,0.,12.0,0.,12.0,0.,12.0,0.,12.0
1979-03-10 10:26:00.620 ,6,1,0.,12.0,0.,12.0,0.,12.0,0.,12.0
1979-03-10 10:26:12.620 ,6,1,0.,12.0,0.,12.0,0.,12.0,0.,12.0
1979-03-10 10:26:24.620 ,7,1,0.,12.0,0.,12.0,0.,12.0,0.,12.0
1979-03-10 10:26:36.620 ,7,1,0.,12.0,0.,12.0,0.,12.0,0.,12.0
1979-03-10 10:26:48.620 ,7,1,0.,12.0,0.,12.0,0.,12.0,0.,12.0
1979-03-10 10:27:00.620 ,7,1,0.,12.0,0.,12.0,0.,12.0,0.,12.0
1979-03-10 10:27:12.620 ,6,1,0.,12.0,0.,12.0,0.,12.0,0.,12.0
1979-03-10 10:27:24.620 ,6,1,0.,12.0,0.,12.0,0.,12.0,0.,12.0
1979-03-10 10:27:36.620 ,5,1,0.,12.0,0.,12.0,0.,12.0,0.,12.0
1979-03-10 10:27:48.620 ,5,1,0.,12.0,0.,12.0,0.,12.0,0.,12.0
1979-03-10 10:28:00.620 ,4,1,0.,12.0,0.,12.0,0.,12.0,0.,12.0
1979-03-10 10:28:12.620 ,4,1,0.,12.0,0.,12.0,0.,12.0,0.,12.0
1979-03-10 10:28:24.620 ,3,1,0.,12.0,0.,12.0,0.,12.0,0.,12.0
1979-03-10 10:28:36.620 ,3,1,0.,12.0,0.,12.0,0.,12.0,0.,12.0
1979-03-10 10:28:48.620 ,2,1,0.,12.0,0.,12.0,0.,12.0,0.,12.0
1979-03-10 10:29:00.620 ,2,1,0.,12.0,0.,12.0,0.,12.0,0.,12.0
1979-03-10 10:29:12.620 ,1,1,0.,12.0,0.,12.0,0.,12.0,0.,12.0
1979-03-10 10:29:24.620 ,1,1,0.,12.0,0.,12.0,0.,12.0,0.,12.0
1979-03-10 10:29:36.620 ,0,1,0.,12.0,0.,12.0,0.,12.0,0.,12.0
1979-03-10 10:29:48.620 ,0,1,0.,12.0,0.,12.0,0.,12.0,0.,12.0
1979-03-10 10:30:00.620 ,0,1,0.,12.0,0.,12.0,0.,12.0,0.,12.0
1979-03-10 10:30:12.620 ,0,1,0.,12.0,0.,12.0,0.,12.0,0.,12.0
1979-03-10 10:30:48.620 ,2,1,0.,12.0,0.,12.0,0.,12.0,0.,12.0
1979-03-10 10:31:00.620 ,2,1,0.,12.0,0.,12.0,0.,12.0,0.,12.0
1979-03-10 10:31:12.620 ,3,1,0.,12.0,0.,12.0,0.,12.0,0.,12.0
1979-03-10 10:31:24.620 ,3,1,0.,12.0,0.,12.0,0.,12.0,0.,12.0
1979-03-10 10:31:36.620 ,4,1,0.,12.0,0.,12.0,0.,12.0,0.,12.0
1979-03-10 10:31:48.620 ,4,1,0.,12.0,0.,12.0,0.,12.0,0.,12.0
1979-03-10 10:32:00.620 ,5,1,0.,12.0,0.,12.0,0.,12.0,0.,12.0
1979-03-10 10:32:12.620 ,5,1,0.,12.0,0.,12.0,0.,12.0,0.,12.0